Time,TemperatureF,DewpointF,PressureIn,WindDirection,WindDirectionDegrees,WindSpeedMPH,WindSpeedGustMPH,Humidity,HourlyPrecipIn,Conditions,Clouds,dailyrainin,SoftwareType,DateUTC
2014-10-31 00:12:00,37.6,31.0,29.84,WNW,292,0.0,-999.0,77,-99.99,,,0.00,Acu-Link.com,2014-10-31 04:12:00,
2014-10-31 00:27:00,37.0,31.1,29.83,West,270,0.0,-999.0,79,-99.99,,,0.00,Acu-Link.com,2014-10-31 04:27:00,
2014-10-31 00:42:00,36.1,31.2,29.84,West,270,0.0,-999.0,82,-99.99,,,0.00,Acu-Link.com,2014-10-31 04:42:00,
2014-10-31 00:57:00,36.0,31.3,29.84,West,270,0.0,-999.0,83,-99.99,,,0.00,Acu-Link.com,2014-10-31 04:57:00,
2014-10-31 01:12:00,35.6,31.3,29.84,West,270,0.0,-999.0,84,-99.99,,,0.00,Acu-Link.com,2014-10-31 05:12:00,
2014-10-31 01:28:00,35.4,31.4,29.84,West,270,0.0,-999.0,85,-99.99,,,0.00,Acu-Link.com,2014-10-31 05:28:00,
2014-10-31 01:43:00,35.4,31.4,29.84,West,270,0.0,-999.0,85,-99.99,,,0.00,Acu-Link.com,2014-10-31 05:43:00,
2014-10-31 01:58:00,34.9,30.8,29.84,WNW,292,0.0,-999.0,85,-99.99,,,0.00,Acu-Link.com,2014-10-31 05:58:00,
2014-10-31 02:13:00,34.5,30.8,29.83,West,270,0.0,-999.0,86,-99.99,,,0.00,Acu-Link.com,2014-10-31 06:13:00,
2014-10-31 02:28:00,34.3,30.9,29.84,NNW,337,0.0,-999.0,87,-99.99,,,0.00,Acu-Link.com,2014-10-31 06:28:00,
2014-10-31 02:44:00,35.6,32.1,29.83,West,270,1.1,-999.0,87,-99.99,,,0.00,Acu-Link.com,2014-10-31 06:44:00,
2014-10-31 02:59:00,36.7,32.3,29.83,WNW,292,2.7,-999.0,84,-99.99,,,0.00,Acu-Link.com,2014-10-31 06:59:00,
2014-10-31 03:14:00,37.0,32.1,29.83,WNW,292,0.0,-999.0,82,-99.99,,,0.00,Acu-Link.com,2014-10-31 07:14:00,
2014-10-31 03:29:00,36.9,31.9,29.83,WSW,247,0.0,-999.0,82,-99.99,,,0.00,Acu-Link.com,2014-10-31 07:29:00,
2014-10-31 03:44:00,36.0,31.3,29.83,WSW,247,0.0,-999.0,83,-99.99,,,0.00,Acu-Link.com,2014-10-31 07:44:00,
2014-10-31 04:00:00,35.2,31.2,29.83,WSW,247,0.0,-999.0,85,-99.99,,,0.00,Acu-Link.com,2014-10-31 08:00:00,
2014-10-31 04:15:00,34.7,30.7,29.83,West,270,0.0,-999.0,85,-99.99,,,0.00,Acu-Link.com,2014-10-31 08:15:00,
2014-10-31 04:30:00,34.2,30.4,29.82,West,270,0.0,-999.0,86,-99.99,,,0.00,Acu-Link.com,2014-10-31 08:30:00,
2014-10-31 04:45:00,34.2,30.4,29.83,West,270,0.0,-999.0,86,-99.99,,,0.00,Acu-Link.com,2014-10-31 08:45:00,
2014-10-31 05:01:00,34.2,30.7,29.82,West,270,0.0,-999.0,87,-99.99,,,0.00,Acu-Link.com,2014-10-31 09:01:00,
2014-10-31 05:16:00,35.2,31.5,29.83,NW,315,0.0,-999.0,86,-99.99,,,0.00,Acu-Link.com,2014-10-31 09:16:00,
2014-10-31 05:31:00,34.9,30.8,29.82,WSW,247,0.0,-999.0,85,-99.99,,,0.00,Acu-Link.com,2014-10-31 09:31:00,
2014-10-31 05:46:00,34.3,30.6,29.83,WNW,292,0.0,-999.0,86,-99.99,,,0.00,Acu-Link.com,2014-10-31 09:46:00,
2014-10-31 06:01:00,33.6,29.9,29.82,West,270,0.0,-999.0,86,-99.99,,,0.00,Acu-Link.com,2014-10-31 10:01:00,
2014-10-31 06:17:00,33.3,29.8,29.83,West,270,0.0,-999.0,87,-99.99,,,0.00,Acu-Link.com,2014-10-31 10:17:00,
2014-10-31 06:32:00,33.1,30.5,29.83,NW,315,0.0,-999.0,90,-99.99,,,0.00,Acu-Link.com,2014-10-31 10:32:00,
2014-10-31 06:47:00,33.6,31.0,29.83,WNW,292,0.0,-999.0,90,-99.99,,,0.00,Acu-Link.com,2014-10-31 10:47:00,
2014-10-31 07:02:00,32.9,30.0,29.83,SW,225,0.0,-999.0,89,-99.99,,,0.00,Acu-Link.com,2014-10-31 11:02:00,
2014-10-31 07:17:00,32.0,29.1,29.83,WNW,292,0.0,-999.0,89,-99.99,,,0.00,Acu-Link.com,2014-10-31 11:17:00,
2014-10-31 07:33:00,31.3,28.4,29.83,WNW,292,0.0,-999.0,89,-99.99,,,0.00,Acu-Link.com,2014-10-31 11:33:00,
2014-10-31 07:48:00,30.9,28.1,29.83,South,180,0.0,-999.0,89,-99.99,,,0.00,Acu-Link.com,2014-10-31 11:48:00,
2014-10-31 08:03:00,31.1,28.2,29.83,SSW,202,0.0,-999.0,89,-99.99,,,0.00,Acu-Link.com,2014-10-31 12:03:00,
2014-10-31 08:18:00,32.2,29.9,29.83,ENE,67,0.0,-999.0,91,-99.99,,,0.00,Acu-Link.com,2014-10-31 12:18:00,
2014-10-31 08:33:00,33.6,31.5,29.83,ESE,112,0.0,-999.0,92,-99.99,,,0.00,Acu-Link.com,2014-10-31 12:33:00,
2014-10-31 08:49:00,36.0,33.9,29.84,East,90,2.7,-999.0,92,-99.99,,,0.00,Acu-Link.com,2014-10-31 12:49:00,
2014-10-31 09:04:00,38.3,34.8,29.84,North,0,0.0,-999.0,87,-99.99,,,0.00,Acu-Link.com,2014-10-31 13:04:00,
2014-10-31 09:19:00,40.6,36.2,29.83,SSE,157,2.7,-999.0,84,-99.99,,,0.00,Acu-Link.com,2014-10-31 13:19:00,
2014-10-31 09:34:00,42.4,37.0,29.82,NE,45,3.8,-999.0,81,-99.99,,,0.00,Acu-Link.com,2014-10-31 13:34:00,
2014-10-31 09:50:00,43.3,36.9,29.82,ESE,112,2.7,-999.0,78,-99.99,,,0.00,Acu-Link.com,2014-10-31 13:50:00,
2014-10-31 10:05:00,43.9,37.8,29.82,ESE,112,2.7,-999.0,79,-99.99,,,0.00,Acu-Link.com,2014-10-31 14:05:00,
2014-10-31 10:20:00,45.1,38.0,29.82,SSE,157,1.6,-999.0,76,-99.99,,,0.00,Acu-Link.com,2014-10-31 14:20:00,
2014-10-31 10:35:00,46.6,38.7,29.82,ESE,112,2.2,-999.0,74,-99.99,,,0.00,Acu-Link.com,2014-10-31 14:35:00,
2014-10-31 10:50:00,47.7,38.7,29.80,NNE,22,2.2,-999.0,71,-99.99,,,0.00,Acu-Link.com,2014-10-31 14:50:00,
2014-10-31 11:06:00,48.9,39.2,29.81,North,0,2.7,-999.0,69,-99.99,,,0.00,Acu-Link.com,2014-10-31 15:06:00,
2014-10-31 11:21:00,48.6,39.2,29.81,NNE,22,3.1,-999.0,70,-99.99,,,0.00,Acu-Link.com,2014-10-31 15:21:00,
2014-10-31 11:36:00,49.6,39.5,29.80,East,90,1.1,-999.0,68,-99.99,,,0.00,Acu-Link.com,2014-10-31 15:36:00,
2014-10-31 11:51:00,48.0,39.4,29.80,NNE,22,3.1,-999.0,72,-99.99,,,0.00,Acu-Link.com,2014-10-31 15:51:00,
2014-10-31 12:06:00,47.3,38.7,29.79,NW,315,4.3,-999.0,72,-99.99,,,0.00,Acu-Link.com,2014-10-31 16:06:00,
2014-10-31 12:22:00,47.7,38.0,29.78,ESE,112,1.6,-999.0,69,-99.99,,,0.00,Acu-Link.com,2014-10-31 16:22:00,
2014-10-31 12:37:00,48.4,37.9,29.77,ESE,112,2.2,-999.0,67,-99.99,,,0.00,Acu-Link.com,2014-10-31 16:37:00,
2014-10-31 12:52:00,49.5,38.6,29.76,SE,135,2.2,-999.0,66,-99.99,,,0.00,Acu-Link.com,2014-10-31 16:52:00,
2014-10-31 13:07:00,49.8,38.5,29.76,NNW,337,2.2,-999.0,65,-99.99,,,0.00,Acu-Link.com,2014-10-31 17:07:00,
2014-10-31 13:22:00,50.0,37.9,29.75,NNE,22,2.2,-999.0,63,-99.99,,,0.00,Acu-Link.com,2014-10-31 17:22:00,
2014-10-31 13:38:00,51.4,38.4,29.74,NW,315,2.2,-999.0,61,-99.99,,,0.00,Acu-Link.com,2014-10-31 17:38:00,
2014-10-31 13:53:00,53.1,38.2,29.73,South,180,1.6,-999.0,57,-99.99,,,0.00,Acu-Link.com,2014-10-31 17:53:00,
2014-10-31 14:08:00,51.3,37.4,29.73,SE,135,0.0,-999.0,59,-99.99,,,0.00,Acu-Link.com,2014-10-31 18:08:00,
2014-10-31 14:23:00,50.9,38.4,29.73,NW,315,1.1,-999.0,62,-99.99,,,0.00,Acu-Link.com,2014-10-31 18:23:00,
2014-10-31 14:39:00,51.4,38.4,29.72,NNW,337,3.1,-999.0,61,-99.99,,,0.00,Acu-Link.com,2014-10-31 18:39:00,
2014-10-31 14:54:00,51.6,39.4,29.72,ESE,112,2.2,-999.0,63,-99.99,,,0.00,Acu-Link.com,2014-10-31 18:54:00,
2014-10-31 15:09:00,51.6,38.6,29.71,East,90,1.1,-999.0,61,-99.99,,,0.00,Acu-Link.com,2014-10-31 19:09:00,
2014-10-31 15:24:00,53.2,38.0,29.70,ESE,112,1.6,-999.0,56,-99.99,,,0.00,Acu-Link.com,2014-10-31 19:24:00,
2014-10-31 15:39:00,52.3,38.0,29.70,North,0,3.1,-999.0,58,-99.99,,,0.00,Acu-Link.com,2014-10-31 19:39:00,
2014-10-31 15:55:00,52.0,38.1,29.70,SE,135,1.1,-999.0,59,-99.99,,,0.00,Acu-Link.com,2014-10-31 19:55:00,
2014-10-31 16:10:00,51.1,38.5,29.70,ESE,112,1.6,-999.0,62,-99.99,,,0.00,Acu-Link.com,2014-10-31 20:10:00,
2014-10-31 16:25:00,50.9,38.4,29.70,ENE,67,2.7,-999.0,62,-99.99,,,0.00,Acu-Link.com,2014-10-31 20:25:00,
2014-10-31 16:40:00,50.2,38.1,29.70,North,0,2.7,-999.0,63,-99.99,,,0.00,Acu-Link.com,2014-10-31 20:40:00,
2014-10-31 16:55:00,49.6,38.0,29.70,North,0,0.0,-999.0,64,-99.99,,,0.00,Acu-Link.com,2014-10-31 20:55:00,
2014-10-31 17:11:00,49.1,38.2,29.70,ESE,112,1.6,-999.0,66,-99.99,,,0.00,Acu-Link.com,2014-10-31 21:11:00,
2014-10-31 17:26:00,48.6,37.7,29.70,ESE,112,4.3,-999.0,66,-99.99,,,0.00,Acu-Link.com,2014-10-31 21:26:00,
2014-10-31 17:41:00,48.2,37.8,29.70,ESE,112,0.0,-999.0,67,-99.99,,,0.00,Acu-Link.com,2014-10-31 21:41:00,
2014-10-31 17:56:00,47.8,37.4,29.71,East,90,2.2,-999.0,67,-99.99,,,0.00,Acu-Link.com,2014-10-31 21:56:00,
2014-10-31 18:11:00,47.5,37.1,29.70,ESE,112,2.7,-999.0,67,-99.99,,,0.00,Acu-Link.com,2014-10-31 22:11:00,
2014-10-31 18:27:00,47.3,37.7,29.71,ESE,112,2.2,-999.0,69,-99.99,,,0.00,Acu-Link.com,2014-10-31 22:27:00,
2014-10-31 18:42:00,47.1,37.5,29.72,East,90,0.0,-999.0,69,-99.99,,,0.00,Acu-Link.com,2014-10-31 22:42:00,
2014-10-31 18:57:00,46.8,37.1,29.72,NW,315,0.0,-999.0,69,-99.99,,,0.00,Acu-Link.com,2014-10-31 22:57:00,
2014-10-31 19:12:00,46.8,37.5,29.72,NNE,22,0.0,-999.0,70,-99.99,,,0.00,Acu-Link.com,2014-10-31 23:12:00,
2014-10-31 19:28:00,46.6,37.3,29.71,SW,225,0.0,-999.0,70,-99.99,,,0.00,Acu-Link.com,2014-10-31 23:28:00,
2014-10-31 19:43:00,46.4,37.5,29.72,SW,225,1.1,-999.0,71,-99.99,,,0.00,Acu-Link.com,2014-10-31 23:43:00,
2014-10-31 19:58:00,46.4,37.5,29.71,NNE,22,3.1,-999.0,71,-99.99,,,0.00,Acu-Link.com,2014-10-31 23:58:00,
2014-10-31 20:13:00,46.2,37.7,29.71,NNE,22,2.7,-999.0,72,-99.99,,,0.00,Acu-Link.com,2014-11-01 00:13:00,
2014-10-31 20:28:00,46.2,37.7,29.70,North,0,1.6,-999.0,72,-99.99,,,0.00,Acu-Link.com,2014-11-01 00:28:00,
2014-10-31 20:44:00,46.0,37.5,29.70,ESE,112,0.0,-999.0,72,-99.99,,,0.00,Acu-Link.com,2014-11-01 00:44:00,
2014-10-31 20:59:00,46.0,37.9,29.69,SSW,202,0.0,-999.0,73,-99.99,,,0.00,Acu-Link.com,2014-11-01 00:59:00,
2014-10-31 21:14:00,45.9,37.4,29.68,ENE,67,0.0,-999.0,72,-99.99,,,0.00,Acu-Link.com,2014-11-01 01:14:00,
2014-10-31 21:29:00,45.9,37.4,29.68,East,90,1.1,-999.0,72,-99.99,,,0.00,Acu-Link.com,2014-11-01 01:29:00,
2014-10-31 21:44:00,46.0,37.5,29.68,WNW,292,1.1,-999.0,72,-99.99,,,0.00,Acu-Link.com,2014-11-01 01:44:00,
2014-10-31 22:00:00,46.2,37.7,29.68,North,0,1.1,-999.0,72,-99.99,,,0.00,Acu-Link.com,2014-11-01 02:00:00,